Simultaneous Nadir Overpasses (SNOs) Predictions

Prediction of SNOs between GOES-16 and LANDSAT-8 Satellite Orbit:

Table of predicted SNOs for the next 14.0 days since TLE Epoch: 4/22/2023
Index Date Time (GOES-16) GOES-16 Lat,Lon LANDSAT-8 Lat,Lon Distance(km) Time Diff (sec)
1 04/23/2023 02:56:56 -0.06, -75.20 0.70, -71.71 397.13 80
2 04/23/2023 15:18:11 0.06, -75.20 0.43, -76.86 189.45 80
3 04/25/2023 15:08:41 0.05, -75.20 -0.24, -73.92 146.12 80
4 04/26/2023 03:30:05 -0.05, -75.21 -0.89, -79.11 444.36 80
5 04/27/2023 14:56:30 0.04, -75.21 -0.86, -70.97 482.26 80
6 04/28/2023 03:17:55 -0.04, -75.22 -0.21, -76.17 108.08 80
7 04/30/2023 03:03:04 -0.04, -75.24 0.40, -73.22 229.11 80
8 04/30/2023 15:24:20 0.03, -75.24 0.67, -78.39 357.02 80
9 05/02/2023 15:12:09 0.03, -75.27 0.06, -75.44 18.97 80
10 05/04/2023 15:02:38 0.03, -75.30 -0.56, -72.48 319.58 80
11 05/05/2023 03:24:02 -0.03, -75.31 -0.56, -77.68 270.08 80
